Crookston, MN

4:12 PM CST on February 24, 2018 (GMT -0600)
Crookston Municipal-Kirkwood

Weather History for KCKN - September, 2013

Change the Weather History Date:

Sunday, September 22, 2013

  Actual Average Record
Temperature  
Mean Temperature 61 °F -  
Max Temperature 78 °F 63 °F 84 °F (1999)
Min Temperature 44 °F 40 °F 28 °F (2012)
Degree Days  
Heating Degree Days 4    
Growing Degree Days 11 (Base 50)    
Moisture  
Dew Point 49 °F    
Average Humidity 65    
Maximum Humidity 93    
Minimum Humidity 41    
Precipitation  
Precipitation 0.00 in - - ()
Sea Level Pressure  
Sea Level Pressure 29.73 in    
Wind  
Wind Speed 15 mph (SSE)    
Max Wind Speed 28 mph    
Max Gust Speed 34 mph    
Visibility 10 miles    
Events      
Averages and records for this station are not official NWS values.
T = Trace of Precipitation, MM = Missing Value Source: NWS Daily Summary

Daily Weather History Graph

Daily Weather History Graph

Search for Another Location

Airport or City:

Trip Planner

Search our weather history database for the weather conditions in past years. The results will help you decide how hot, cold, wet, or windy it might be!

Date:

Astronomy

Sep. 22, 2013 Rise Set
Actual Time 7:13 AM CDT 7:23 PM CDT
Civil Twilight 6:42 AM CDT 7:54 PM CDT
Nautical Twilight 6:06 AM CDT 8:30 PM CDT
Astronomical Twilight 5:28 AM CDT 9:08 PM CDT
Moon 8:56 PM CDT (9/22) 10:52 AM CDT (9/22)
Length of Visible Light 13h 11m
Length of Day
12h 10m
Waning Gibbous, 88% of the Moon is Illuminated
Sep 22
Waning Gibbous
Sep 26
Last Quarter
Oct 4
New
Oct 11
First Quarter
Oct 18
Full

Hourly Weather History & Observations

Time (CDT) Temp. Windchill Dew Point Humidity Pressure Visibility Wind Dir Wind Speed Gust Speed Precip Events Conditions
12:14 AM 46.4 °F 42.4 °F 41.0 °F 81% 29.89 in 10.0 mi SE 8.1 mph - N/A   Clear
12:34 AM 46.4 °F 41.9 °F 41.0 °F 81% 29.89 in 10.0 mi SE 9.2 mph - N/A   Clear
12:55 AM 46.4 °F 41.9 °F 42.8 °F 87% 29.89 in 10.0 mi SE 9.2 mph - N/A   Clear
1:14 AM 46.4 °F 41.9 °F 42.8 °F 87% 29.89 in 10.0 mi SE 9.2 mph - N/A   Clear
1:34 AM 46.4 °F 41.9 °F 42.8 °F 87% 29.88 in 10.0 mi SE 9.2 mph - N/A   Clear
1:55 AM 46.4 °F 41.5 °F 42.8 °F 87% 29.88 in 10.0 mi SE 10.4 mph - N/A   Clear
2:14 AM 46.4 °F 42.4 °F 42.8 °F 87% 29.87 in 10.0 mi SE 8.1 mph - N/A   Clear
2:35 AM 44.6 °F 39.7 °F 41.0 °F 87% 29.87 in 10.0 mi SE 9.2 mph - N/A   Clear
2:54 AM 44.6 °F 39.7 °F 41.0 °F 87% 29.87 in 10.0 mi SE 9.2 mph - N/A   Clear
3:14 AM 44.6 °F 39.7 °F 41.0 °F 87% 29.87 in 10.0 mi SE 9.2 mph - N/A   Clear
3:35 AM 44.6 °F 39.7 °F 42.8 °F 93% 29.86 in 10.0 mi SE 9.2 mph - N/A   Clear
3:54 AM 46.4 °F 42.4 °F 42.8 °F 87% 29.86 in 10.0 mi SE 8.1 mph - N/A   Clear
4:14 AM 46.4 °F 41.9 °F 42.8 °F 87% 29.86 in 10.0 mi SE 9.2 mph - N/A   Clear
4:35 AM 46.4 °F 41.5 °F 42.8 °F 87% 29.85 in 10.0 mi SE 10.4 mph - N/A   Clear
4:54 AM 46.4 °F 41.5 °F 42.8 °F 87% 29.85 in 10.0 mi SE 10.4 mph - N/A   Clear
5:14 AM 46.4 °F 41.5 °F 42.8 °F 87% 29.84 in 10.0 mi SE 10.4 mph - N/A   Clear
5:35 AM 46.4 °F 41.5 °F 42.8 °F 87% 29.84 in 10.0 mi SE 10.4 mph - N/A   Clear
5:54 AM 46.4 °F 41.1 °F 42.8 °F 87% 29.83 in 10.0 mi SE 11.5 mph - N/A   Clear
6:15 AM 46.4 °F 41.1 °F 42.8 °F 87% 29.83 in 10.0 mi SE 11.5 mph - N/A   Clear
6:35 AM 48.2 °F - 44.6 °F 87% 29.82 in 10.0 mi SE 12.7 mph - N/A   Clear
6:54 AM 48.2 °F - 44.6 °F 87% 29.81 in 10.0 mi SE 13.8 mph - N/A   Clear
7:15 AM 48.2 °F - 44.6 °F 87% 29.80 in 10.0 mi SE 15.0 mph - N/A   Clear
7:34 AM 48.2 °F - 44.6 °F 87% 29.80 in 10.0 mi SE 13.8 mph - N/A   Clear
7:54 AM 51.8 °F - 44.6 °F 76% 29.80 in 10.0 mi SE 15.0 mph 19.6 mph N/A   Clear
8:15 AM 51.8 °F - 44.6 °F 76% 29.79 in 10.0 mi SE 17.3 mph - N/A   Clear
8:35 AM 53.6 °F - 46.4 °F 77% 29.78 in 10.0 mi SE 17.3 mph - N/A   Clear
8:54 AM 55.4 °F - 46.4 °F 72% 29.78 in 10.0 mi SSE 18.4 mph - N/A   Clear
9:15 AM 57.2 °F - 46.4 °F 67% 29.78 in 10.0 mi SSE 19.6 mph - N/A   Clear
9:35 AM 59.0 °F - 46.4 °F 63% 29.78 in 10.0 mi SSE 19.6 mph 25.3 mph N/A   Clear
9:54 AM 60.8 °F - 46.4 °F 59% 29.77 in 10.0 mi SSE 21.9 mph 27.6 mph N/A   Clear
10:15 AM 60.8 °F - 46.4 °F 59% 29.76 in 10.0 mi SSE 23.0 mph 32.2 mph N/A   Clear
10:34 AM 62.6 °F - 46.4 °F 55% 29.75 in 10.0 mi SSE 24.2 mph - N/A   Clear
10:54 AM 64.4 °F - 46.4 °F 52% 29.75 in 10.0 mi SSE 27.6 mph 31.1 mph N/A   Clear
11:15 AM 66.2 °F - 48.2 °F 52% 29.75 in 10.0 mi SSE 20.7 mph 26.5 mph N/A   Clear
11:34 AM 68.0 °F - 48.2 °F 49% 29.74 in 10.0 mi South 21.9 mph 27.6 mph N/A   Clear
11:54 AM 69.8 °F - 48.2 °F 46% 29.74 in 10.0 mi SSE 24.2 mph 29.9 mph N/A   Clear
12:15 PM 69.8 °F - 48.2 °F 46% 29.72 in 10.0 mi SSE 23.0 mph 31.1 mph N/A   Clear
12:34 PM 71.6 °F - 50.0 °F 46% 29.71 in 10.0 mi SSE 23.0 mph 26.5 mph N/A   Clear
12:54 PM 71.6 °F - 50.0 °F 46% 29.70 in 10.0 mi SE 24.2 mph 29.9 mph N/A   Clear
1:14 PM 73.4 °F - 50.0 °F 44% 29.70 in 10.0 mi SSE 24.2 mph 29.9 mph N/A   Clear
1:34 PM 73.4 °F - 50.0 °F 44% 29.69 in 10.0 mi SSE 21.9 mph 31.1 mph N/A   Clear
1:55 PM 75.2 °F - 51.8 °F 44% 29.68 in 10.0 mi SSE 25.3 mph 29.9 mph N/A   Clear
2:14 PM 75.2 °F - 51.8 °F 44% 29.66 in 10.0 mi SSE 24.2 mph 29.9 mph N/A   Clear
2:34 PM 75.2 °F - 51.8 °F 44% 29.65 in 10.0 mi SE 23.0 mph 31.1 mph N/A   Clear
2:55 PM 77.0 °F - 51.8 °F 41% 29.65 in 10.0 mi SE 24.2 mph 28.8 mph N/A   Clear
3:14 PM 77.0 °F - 51.8 °F 41% 29.64 in 10.0 mi SSE 26.5 mph 34.5 mph N/A   Clear
3:34 PM 78.8 °F - 53.6 °F 42% 29.63 in 10.0 mi SSE 27.6 mph 33.4 mph N/A   Clear
3:55 PM 78.8 °F - 53.6 °F 42% 29.63 in 10.0 mi SSE 26.5 mph 33.4 mph N/A   Clear
4:14 PM 78.8 °F - 53.6 °F 42% 29.63 in 10.0 mi SSE 26.5 mph 34.5 mph N/A   Clear
4:35 PM 78.8 °F - 53.6 °F 42% 29.63 in 10.0 mi SSE 25.3 mph 33.4 mph N/A   Clear
4:54 PM 77.0 °F - 53.6 °F 44% 29.63 in 10.0 mi South 21.9 mph 32.2 mph N/A   Clear
5:14 PM 77.0 °F - 53.6 °F 44% 29.62 in 10.0 mi SSE 25.3 mph 31.1 mph N/A   Clear
5:35 PM 75.2 °F - 53.6 °F 47% 29.63 in 10.0 mi SSE 23.0 mph 33.4 mph N/A   Clear
5:54 PM 75.2 °F - 55.4 °F 50% 29.63 in 10.0 mi SSE 24.2 mph 29.9 mph N/A   Clear
6:14 PM 73.4 °F - 55.4 °F 53% 29.62 in 10.0 mi SSE 21.9 mph 29.9 mph N/A   Clear
6:35 PM 73.4 °F - 55.4 °F 53% 29.62 in 10.0 mi SSE 20.7 mph 31.1 mph N/A   Clear
6:54 PM 71.6 °F - 55.4 °F 57% 29.62 in 10.0 mi SSE 21.9 mph 26.5 mph N/A   Clear
7:14 PM 71.6 °F - 53.6 °F 53% 29.61 in 10.0 mi SSE 24.2 mph 32.2 mph N/A   Clear
7:35 PM 69.8 °F - 53.6 °F 56% 29.62 in 10.0 mi SSE 24.2 mph 31.1 mph N/A   Clear
7:54 PM 69.8 °F - 53.6 °F 56% 29.62 in 10.0 mi SSE 17.3 mph - N/A   Clear
8:14 PM 69.8 °F - 53.6 °F 56% 29.62 in 10.0 mi SSE 20.7 mph 26.5 mph N/A   Clear
8:35 PM 68.0 °F - 53.6 °F 60% 29.62 in 10.0 mi SSE 21.9 mph - N/A   Clear
8:54 PM 68.0 °F - 53.6 °F 60% 29.62 in 10.0 mi SSE 24.2 mph 31.1 mph N/A   Clear
9:15 PM 68.0 °F - 53.6 °F 60% 29.62 in 10.0 mi SSE 25.3 mph 32.2 mph N/A   Clear
9:34 PM 68.0 °F - 53.6 °F 60% 29.62 in 10.0 mi SSE 25.3 mph 31.1 mph N/A   Clear
9:54 PM 68.0 °F - 53.6 °F 60% 29.62 in 10.0 mi SSE 25.3 mph 28.8 mph N/A   Clear
10:15 PM 68.0 °F - 53.6 °F 60% 29.62 in 10.0 mi SSE 23.0 mph 31.1 mph N/A   Clear
10:34 PM 68.0 °F - 53.6 °F 60% 29.62 in 10.0 mi SSE 23.0 mph 29.9 mph N/A   Clear
10:54 PM 68.0 °F - 53.6 °F 60% 29.63 in 10.0 mi South 24.2 mph 29.9 mph N/A   Clear
11:15 PM 66.2 °F - 53.6 °F 64% 29.63 in 10.0 mi South 23.0 mph 33.4 mph N/A   Clear
11:34 PM 66.2 °F - 53.6 °F 64% 29.63 in 10.0 mi South 21.9 mph 28.8 mph N/A   Clear
11:54 PM 66.2 °F - 53.6 °F 64% 29.63 in 10.0 mi South 21.9 mph 31.1 mph N/A   Clear